EUTELSAT 70B

Last updated on Jan. 29, 2020, 4:37 a.m. UTC

1 39020U 12069A   20028.83644539 -.00000045  00000-0  00000-0 0  9996
2 39020   0.0637 356.3072 0003562 245.5500 257.3158  1.00274043 26139
UTC
Height (km)
Latitude
Longitude
Inclination
Orbital Period
UTC large
Height (km)
Speed (km/s)
/
Latitude / Longitude
Inclination (degrees)
Orbital Period (minutes)
Azimuth
Elevation
Range (km)
Doppler Factor
iOS Compass Heading
iOS Angle

Next 30 passes for location: Hong Kong

Rise time Rise Azimuth (degrees) Set time Set Azimuth (degrees) Duration Max altitude (degrees)

No matching passes for this satellites